NOAA 17 DEB

Satellite information

Favourite Embed

Satellite Type and Status

DEBRISIN ORBIT

Key statistics

Satellite NOAA 17 DEB at a glance.

Uptime

8354

Days in orbit

Revolutions

≈ 14.5

Per day

Orbit

SSO

Sun Synchronous Orbit

Inclination

98.8

Latest

Satellite identification and parameters

Extended collection of information and parameters for NOAA 17 DEB.

Object identification

Identified? True

Debris? True

Object name: NOAA 17 DEB

International designator: 2002-032Y

Object number (NORAD): 48183

Object ID (CCSDS): 48183

Country: UNITED STATES OF AMERICA (US)

Current information (Y/N): Y

RCS size: SMALL

Orbital parameters

Period: 99.266 minutes

Inclination: 98.7626 deg

SMA: 7101.682 km

Apoapsis: 731.514 km

Periapsis: 715.58 km

RAAN: 106.0815 deg

Eccentricy: 0.0011219

Argument of periapsis: 342.5119 deg

Mean anomaly: 17.5686 deg

Mean motion: 14.50644248 rev/day

Mean motion (dot): 0.00009051 rev/day2

B* drag term: 0.0023134 1/REarth

Two-line elements (TLE)

Creation date: May 8, 2025, 3:01 a.m.

Reference frame: TEME

Reference center: EARTH

Epoch: May 7, 2025, 9:25 p.m. UTC

TLE line 0: 0 NOAA 17 DEB

TLE line 1: 1 48183U 02032Y 25127.89261080 .00009051 00000-0 23134-2 0 9992

TLE line 2: 2 48183 98.7626 106.0815 0011219 342.5119 17.5686 14.50644248214923

Live tracking on map

Real-time ground track for satellite NOAA 17 DEB.

In-orbit conjunctions

A list of the most updated potential collisions computed for object NOAA 17 DEB.

Target Orbit TCA Probability of collision Miss distance Type
JAWSAT SSO 2024-10-01 18:31:33 0.00043357 513.0 (m) PAYLOAD
COSMOS 858 LEO 2024-08-15 22:00:59 0.0001505696 894.0 (m) PAYLOAD

Associated space launch

NOAA M carried weather imagers and microwave and infrared sounders, as well as a SARSAT search-and-rescue package. It had an on-orbit mass of 1475 kg.

NOAA 17 DEB was lifted into orbit during the mission ‘Titan II SLV | NOAA 17’, on board a Titan II SLV space rocket.

The launch took place on June 24, 2002, 6:23 p.m. from Space Launch Complex 4W.

For more information about the launch, click the button.

Launch to space Titan II SLV | NOAA 17
Titan II SLV | NOAA 17

Agency: N/A

Status: Launch Successful

Launch date: June 24, 2002, 6:23 p.m. UTC

Rocket: Titan II SLV

Launch pad: Space Launch Complex 4W

Location: Vandenberg SFB, CA, USA

...

Latest news about this satellite

There are no fresh news available about this satellite. Check back as we update our databases every day.


Newsletter sign-up

Weekly statistics, charts and insights to help you stay on top of the space industry.